Regional Weather Roundup
Issued by NWS

Home | Current Version | Previous Version | Graphics & Text | Print | Product List | Glossary On
Versions: 1 2 3 4 5 6 7 8 9 10 11 12 13 14 15 16 17 18 19 20 21 22 23 24 25 26 27 28 29 30 31 32 33 34 35 36 37 38 39 40 41 42 43 44 45 46 47 48 49 50
000
ASUS45 KABQ 221101
RWRNM
NEW MEXICO REGIONAL WEATHER ROUNDUP
NATIONAL WEATHER SERVICE ALBUQUERQUE NM
500 AM MDT FRI SEP 22 2017

NOTE: "FAIR" MEANS FEW OR NO CLOUDS BELOW 12,000 FEET AGL WITH NO
       SIGNIFICANT WEATHER OR OBSTRUCTIONS TO VISION.

      THIS PRODUCT IS RELEASED AS TWO VERSIONS.  ONE VERSION NEAR
      THE TOP OF THE HOUR CONTAINING PRELIMINARY DATA FROM ALBUQUERQUE
      AND OTHER STATIONS.  A FINAL VERSION WITH ADDITIONAL DATA IS
      ISSUED ABOUT 10 MINUTES AFTER THE HOUR.

NMZ501-503-504-510>518-221200-
NORTHWEST PLATEAU/NORTHCENTRAL MOUNTAINS

CITY           SKY/WX    TMP DP  RH WIND       PRES   REMARKS
FARMINGTON     MOCLDY    62  37  39 S7        29.90S
LOS ALAMOS     FAIR      59  34  38 S9        30.05S
SANTA FE       FAIR      54  40  59 SE3       30.01R
TAOS           FAIR      55  34  45 VRB5      30.07S
ANGEL FIRE     FAIR      52  33  49 SW10      30.12S

$$
NMZ402-403-502-505>509-221200-
WESTCENTRAL MOUNTAINS/SOUTHWEST MOUNTAINS

CITY           SKY/WX    TMP DP  RH WIND       PRES   REMARKS
GALLUP         FAIR      52  35  52 S6        29.97S
GRANTS         FAIR      48  35  60 CALM      30.01S
SILVER CITY    FAIR      60  40  47 CALM      30.00S

$$
NMZ407-409-411-412-221200-
SOUTHERN DESERTS

CITY           SKY/WX    TMP DP  RH WIND       PRES   REMARKS
DEMING         FAIR      58  38  47 CALM      29.93S
LAS CRUCES     FAIR      59  43  56 W6        29.94S
HOLLOMAN AFB   FAIR      67  42  38 SE7       29.92R
ALAMOGORDO     FAIR      68  41  37 SE7       29.92R
T OR C         FAIR      68  36  30 S3        29.91F

$$
NMZ519>523-221200-
CENTRAL VALLEYS/CENTRAL HIGHLANDS

CITY           SKY/WX    TMP DP  RH WIND       PRES   REMARKS
ALBUQUERQUE    FAIR      61  36  39 SE10      29.96S
DOUBLE EAGLE   FAIR      55  34  45 SW6       29.98S
CLINES CORNERS FAIR      56  37  49 SW13      30.07S
BELEN          FAIR      62  35  36 S9        29.94S
SOCORRO        FAIR      60  36  40 S6        29.92S

$$
NMZ524>526-539-540-221200-
SOUTHCENTRAL MOUNTAINS

CITY           SKY/WX    TMP DP  RH WIND       PRES   REMARKS
RUIDOSO        FAIR      61  37  41 S7        30.11R

$$
NMZ527>531-221200-
NORTHEAST HIGHLANDS/NORTHEAST PLAINS

CITY           SKY/WX    TMP DP  RH WIND       PRES   REMARKS
LAS VEGAS      FAIR      56  38  50 S14       30.03S
RATON          FAIR      52  38  58 SW6       29.96S
CLAYTON        FAIR      62  47  57 S16       29.91S

$$
NMZ532>537-221200-
EASTCENTRAL PLAINS

CITY           SKY/WX    TMP DP  RH WIND       PRES   REMARKS
SANTA ROSA     FAIR      66  48  51 SW7       29.93R
TUCUMCARI      FAIR      71  61  70 S14       29.88R
CANNON AFB     CLEAR     67  67 100 S10       29.95S
CLOVIS AIRPORT FAIR      66  63  90 S10       29.95S

$$
NMZ028-029-538-221200-
SOUTHEAST PLAINS

CITY           SKY/WX    TMP DP  RH WIND       PRES   REMARKS
ROSWELL        FAIR      70  64  81 S8        29.89S
ARTESIA        FAIR      70  68  94 SE10      29.89S
CARLSBAD       FAIR      68  66  93 SW6       29.87R
HOBBS          FAIR      70  64  83 S13       29.92S


$$




USA.gov is the U.S. government's official web portal to all federal, state and local government web resources and services.